[[{"header":{"parameterUnit":"m.s-1","parameterCategory":1,"la1":30.2991,"la2":30.254,"lo1":-89.0895,"lo2":-89.0444,"dy":0.0017,"dx":0.0017,"nx":28,"ny":28,"refTime":"2023-10-21T21:00:00:Z","depth":0,"parameterNumber":2,"parameterNumberName":"U-component_of_WINDS"},"data":[0,0,0,0,0,0,0,0,0,0,0,0,0,0,0,0,0,0,0,0,0,0,0,0,0,0,0,0,0,0,0,0,0,0,0,0,0,0,0,0,0,0,0,0,0,0,0,0,0,0,0,0,0,0,0,0,0,0,-2.1437,-2.1437,0,-2.1397,-2.1397,-2.1396,-2.1275,-2.1272,-2.127,-2.1267,-2.123,-2.1231,-2.1233,0,0,0,0,0,0,0,0,0,0,0,0,0,-2.1415,-2.1416,-2.1437,-2.1437,-2.1436,-2.1397,-2.1397,-2.1396,-2.1276,-2.1272,-2.1269,-2.1266,-2.1229,-2.1231,-2.1233,0,0,0,0,0,0,0,0,0,0,0,0,0,-2.1405,-2.1416,-2.1437,-2.1371,-2.1365,-2.1397,-2.1397,-2.1396,-2.1276,-2.1272,-2.1268,-2.1265,-2.1229,-2.1231,-2.1233,-2.1327,0,0,-2.124,-2.1241,0,0,0,0,0,0,0,0,-2.1405,-2.1406,-2.1382,-2.1376,-2.1369,-2.1337,-2.1375,-2.1373,-2.1277,-2.131,-2.1267,-2.1263,-2.1269,-2.1267,-2.1269,-2.1325,-2.1323,-2.124,-2.1241,-2.1242,-2.1243,0,0,0,0,0,0,0,-2.1406,-2.1407,-2.1421,-2.1381,-2.1374,-2.1345,-2.134,-2.1374,-2.1313,-2.1307,-2.1298,-2.1295,-2.1265,-2.1267,-2.1267,-2.1323,-2.124,-2.1242,-2.1243,-2.1244,-2.1457,-2.1461,0,0,0,0,0,0,-2.1416,-2.1408,-2.1423,-2.142,-2.1378,-2.1349,-2.1343,-2.1351,-2.1312,-2.1302,-2.1298,-2.1289,-2.1265,-2.1265,-2.1265,-2.1374,-2.1242,-2.1244,-2.1246,-2.1453,-2.1458,-2.1463,0,0,0,0,0,0,-2.1416,-2.1418,-2.1424,-2.1412,-2.141,-2.1354,-2.1365,-2.1353,-2.1355,-2.1305,-2.1294,-2.1312,-2.1262,-2.1262,-2.1313,-2.1371,-2.1245,-2.1247,-2.1448,-2.1454,-2.146,-2.1591,0,0,0,0,0,0,-2.1416,-2.1419,-2.1452,-2.1413,-2.1411,-2.1471,-2.1368,-2.1355,-2.1358,-2.1346,-2.1315,-2.1306,-2.1259,-2.131,-2.1315,-2.1371,-2.1249,-2.1442,-2.1451,-2.1458,-2.1581,-2.1601,-2.1618,0,0,0,0,0,-2.1415,-2.1491,-2.1455,-2.1457,-2.1452,-2.1474,-2.1474,-2.1417,-2.1364,-2.1398,-2.1367,-2.1307,-2.1364,-2.1316,-2.1321,-2.1379,-2.1438,-2.1448,-2.1458,-2.1573,-2.1597,-2.1618,0,0,0,0,0,0,-2.1539,-2.1485,-2.1444,-2.1509,-2.1497,-2.1454,-2.1495,-2.1444,-2.1448,-2.1437,-2.1368,-2.1362,-2.1423,-2.1406,-2.1354,-2.1469,-2.1391,-2.1402,-2.1477,-2.15,-2.1518,-2.1521,-2.1251,0,0,0,0,0,-2.1574,-2.1595,-2.1547,-2.1609,-2.1606,-2.1552,-2.156,-2.1518,-2.1503,-2.1498,-2.147,-2.1459,-2.1475,-2.1487,-2.1498,-2.1579,-2.1571,-2.1621,-2.164,-2.1655,-2.1665,-2.1709,-2.1731,-2.1494,-2.1494,-2.1494,0,0,-2.1646,-2.1619,-2.1636,-2.1634,-2.1619,-2.1645,-2.1548,-2.1579,-2.1598,-2.1503,-2.1548,-2.1529,-2.1512,-2.1579,-2.1607,-2.1567,-2.1729,-2.1667,-2.168,-2.1682,-2.1721,-2.1744,-2.1763,-2.1501,-2.15,-2.1499,0,0,-2.179,-2.1771,-2.1821,-2.181,-2.179,-2.1754,-2.1767,-2.1732,-2.1715,-2.176,-2.169,-2.1713,-2.174,-2.1732,-2.1732,-2.1878,-2.1823,-2.1884,-2.198,-2.2023,-2.2042,-2.2058,-2.2111,-2.213,-2.1894,-2.1895,-2.1895,0,-2.1882,-2.1915,-2.1854,-2.189,-2.1891,-2.1807,-2.1859,-2.1851,-2.1837,-2.1841,-2.1796,-2.1831,-2.1814,-2.1879,-2.1915,-2.1917,-2.193,-2.1886,-2.2044,-2.2059,-2.2074,-2.2123,-2.2143,-2.1902,-2.1901,-2.19,-2.19,0,-2.2031,-2.2056,-2.2099,-2.2087,-2.2094,-2.2138,-2.2085,-2.21,-2.2059,-2.2029,-2.2078,-2.2055,-2.2061,-2.2074,-2.2033,-2.2134,-2.2109,-2.2056,-2.1976,-2.2105,-2.215,-2.2169,-2.1913,-2.191,-2.1908,-2.1906,0,0,-2.2248,-2.2204,-2.2221,-2.2215,-2.2189,-2.2208,-2.225,-2.2256,-2.227,-2.2265,-2.2299,-2.2326,-2.2277,-2.2277,-2.2235,-2.2274,-2.2392,-2.2215,-2.2213,-2.2249,-2.2503,-2.2544,-2.2567,-2.2357,-2.236,-2.2363,-2.2505,0,-2.2385,-2.2451,-2.2399,-2.2476,-2.2499,-2.2421,-2.2458,-2.2447,-2.2421,-2.2439,-2.2411,-2.2432,-2.2364,-2.2364,-2.2399,-2.237,-2.2442,-2.2359,-2.2389,-2.2391,-2.2395,-2.259,-2.2632,-2.2767,-2.2522,-2.2525,-2.2527,0,-2.2552,-2.2554,-2.2633,-2.2604,-2.2612,-2.2645,-2.2648,-2.2666,-2.2653,-2.2632,-2.2634,-2.2583,-2.2624,-2.2548,-2.2604,-2.2549,-2.2559,-2.2548,-2.2552,-2.2552,-2.2466,-2.2596,-2.2809,-2.283,-2.2554,-2.2552,-2.255,0,-2.2704,-2.2726,-2.2777,-2.2775,-2.2742,-2.2768,-2.2756,-2.2739,-2.2747,-2.275,-2.2755,-2.2764,-2.2769,-2.2777,-2.2732,-2.268,-2.2795,-2.2714,-2.278,-2.2782,-2.2807,-2.2806,-2.3025,-2.2814,-2.2814,-2.2813,-2.2813,0,-2.2861,-2.2913,-2.2845,-2.2876,-2.2933,-2.2874,-2.2932,-2.2912,-2.2899,-2.2926,-2.286,-2.2888,-2.2826,-2.2848,-2.2813,-2.2866,-2.2869,-2.2854,-2.2844,-2.286,-2.2862,-2.2864,-2.2854,-2.2819,-2.2817,-2.2816,-2.2815,0,-2.3039,-2.2996,-2.3046,-2.3012,-2.3004,-2.3048,-2.3019,-2.3048,-2.3019,-2.3055,-2.306,-2.3015,-2.3038,-2.2994,-2.3011,-2.2987,-2.3063,-2.3038,-2.3067,-2.3059,-2.3128,-2.3123,-2.3356,-2.3384,-2.3156,-2.3158,-2.316,0,-2.3142,-2.318,-2.3151,-2.3164,-2.3156,-2.3178,-2.3186,-2.3131,-2.3142,-2.3133,-2.3164,-2.3181,-2.3192,-2.3233,-2.3202,-2.3216,-2.3191,-2.3273,-2.3193,-2.3208,-2.3193,-2.3192,-2.3196,-2.3289,-2.3291,-2.3294,-2.3295,0,-2.333,-2.3307,-2.332,-2.3328,-2.3339,-2.3343,-2.3341,-2.3357,-2.3298,-2.3315,-2.3338,-2.3346,-2.3365,-2.3383,-2.339,-2.338,-2.3329,-2.3321,-2.3337,-2.3353,-2.3369,-2.3362,-2.3111,-2.3316,-2.3314,-2.3312,-2.3311,-2.331,-2.3473,-2.3504,-2.3489,-2.3507,-2.3501,-2.3502,-2.3528,-2.3503,-2.352,-2.353,-2.3497,-2.3528,-2.3518,-2.3522,-2.3517,-2.3542,-2.3506,-2.3529,-2.3535,-2.3541,-2.3553,-2.3366,-2.3543,-2.3542,-2.3542,-2.3541,-2.3541,0,-2.3658,-2.3645,-2.3662,-2.3663,-2.3678,-2.3629,-2.3626,-2.3643,-2.367,-2.3664,-2.3677,-2.3705,-2.3724,-2.3696,-2.3711,-2.3736,-2.3714,-2.3742,-2.374,-2.3738,-2.3584,-2.3568,-2.376,-2.376,-2.376,-2.376,-2.376,-2.376,-2.3756,-2.3806,-2.3782,-2.383,-2.3817,-2.3846,-2.3849,-2.3851,-2.3846,-2.3879,-2.3895,-2.3877,-2.3863,-2.3877,-2.3894,-2.3885,-2.3894,-2.3931,-2.3915,-2.3771,-2.3749,-2.3728,-2.3714,-2.3933,-2.3934,-2.4067,-2.4069,-2.407]},{"header":{"parameterUnit":"m.s-1","parameterCategory":1,"la1":30.2991,"la2":30.254,"lo1":-89.0895,"lo2":-89.0444,"dy":0.0017,"dx":0.0017,"nx":28,"ny":28,"refTime":"2023-10-21T21:00:00:Z","depth":0,"parameterNumber":3,"parameterNumberName":"V-component_of_WINDS"},"data":[0,0,0,0,0,0,0,0,0,0,0,0,0,0,0,0,0,0,0,0,0,0,0,0,0,0,0,0,0,0,0,0,0,0,0,0,0,0,0,0,0,0,0,0,0,0,0,0,0,0,0,0,0,0,0,0,0,0,2.3867,2.3867,0,2.3903,2.3903,2.3904,2.3978,2.398,2.3981,2.3983,2.4013,2.4012,2.4011,0,0,0,0,0,0,0,0,0,0,0,0,0,2.3858,2.3858,2.3867,2.3867,2.3868,2.3903,2.3903,2.3904,2.3978,2.398,2.3982,2.3983,2.4013,2.4012,2.4011,0,0,0,0,0,0,0,0,0,0,0,0,0,2.3874,2.3857,2.3867,2.3909,2.3913,2.3903,2.3903,2.3904,2.3978,2.398,2.3982,2.3984,2.4013,2.4012,2.4011,2.396,0,0,2.4008,2.4008,0,0,0,0,0,0,0,0,2.3873,2.3874,2.3903,2.3906,2.3911,2.3939,2.3911,2.3923,2.3977,2.3953,2.3983,2.3985,2.3986,2.3987,2.3989,2.3962,2.3963,2.4008,2.4008,2.4007,2.4007,0,0,0,0,0,0,0,2.3872,2.3873,2.3881,2.3903,2.3908,2.3925,2.393,2.3914,2.3956,2.3955,2.3961,2.3964,2.3988,2.3989,2.399,2.3963,2.4008,2.4007,2.4007,2.4007,2.3897,2.3895,0,0,0,0,0,0,2.3865,2.3872,2.388,2.3882,2.3898,2.3923,2.3929,2.3927,2.3956,2.3963,2.3962,2.3968,2.399,2.3991,2.3991,2.3933,2.4007,2.4006,2.4006,2.3899,2.3896,2.3894,0,0,0,0,0,0,2.3865,2.3866,2.3878,2.3879,2.3882,2.3921,2.3919,2.3927,2.3928,2.3962,2.3969,2.3956,2.3992,2.3993,2.3968,2.3935,2.4006,2.4005,2.3902,2.3898,2.3895,2.3817,0,0,0,0,0,0,2.3864,2.3865,2.3847,2.3878,2.3881,2.3856,2.3917,2.3926,2.3927,2.3934,2.3958,2.3964,2.3993,2.3969,2.3967,2.3935,2.4005,2.3905,2.39,2.3896,2.3822,2.3811,2.3801,0,0,0,0,0,2.3864,2.3821,2.3845,2.3846,2.386,2.3854,2.3855,2.3892,2.3924,2.3905,2.3928,2.3963,2.394,2.3966,2.3964,2.3932,2.3907,2.3902,2.3897,2.3827,2.3813,2.3802,0,0,0,0,0,0,2.3782,2.3826,2.3853,2.382,2.3833,2.3866,2.3844,2.3876,2.3879,2.3885,2.3929,2.3934,2.3903,2.3916,2.3944,2.3885,2.3929,2.3923,2.3877,2.3864,2.3854,2.385,2.4004,0,0,0,0,0,2.3761,2.3754,2.3792,2.3759,2.3765,2.3803,2.3802,2.383,2.3844,2.3849,2.3869,2.388,2.3875,2.3871,2.3868,2.3826,2.3831,2.3803,2.3792,2.3784,2.3777,2.3755,2.3743,2.3876,2.3877,2.3877,0,0,2.3715,2.3739,2.3731,2.3744,2.3757,2.3747,2.3807,2.3794,2.3787,2.3846,2.3825,2.384,2.3855,2.3821,2.3808,2.3831,2.3742,2.3777,2.377,2.3768,2.3749,2.3736,2.3725,2.3873,2.3874,2.3874,0,0,2.3628,2.3645,2.362,2.3633,2.3654,2.368,2.3674,2.3704,2.3717,2.3697,2.3742,2.3734,2.3725,2.3734,2.3737,2.3656,2.3688,2.3654,2.3598,2.3576,2.3566,2.3557,2.3527,2.3515,2.3648,2.3648,2.3648,0,2.3568,2.3557,2.3602,2.3587,2.3591,2.3648,2.3622,2.3632,2.365,2.365,2.3677,2.3669,2.3682,2.3652,2.3633,2.3634,2.3627,2.365,2.3564,2.3555,2.3547,2.3519,2.3508,2.3644,2.3644,2.3645,2.3645,0,2.3482,2.3474,2.3451,2.347,2.3471,2.3451,2.3491,2.3487,2.3516,2.3539,2.3518,2.3538,2.3541,2.3537,2.3563,2.351,2.3523,2.3557,2.3602,2.3529,2.3504,2.3493,2.3637,2.3639,2.364,2.3641,0,0,2.334,2.3387,2.3377,2.3387,2.3416,2.341,2.3392,2.3398,2.3393,2.3404,2.3389,2.3382,2.3414,2.3418,2.3446,2.3428,2.3362,2.3464,2.3465,2.3442,2.3303,2.3277,2.3263,2.3385,2.3383,2.3382,2.3302,0,2.3257,2.3231,2.3272,2.3236,2.3229,2.3285,2.3269,2.3284,2.3306,2.3302,2.3326,2.332,2.3363,2.3366,2.335,2.3373,2.3334,2.338,2.3369,2.3368,2.3361,2.325,2.3222,2.3145,2.3292,2.329,2.3289,0,2.3155,2.3165,2.3128,2.3161,2.316,2.3145,2.3154,2.3151,2.3169,2.3187,2.3193,2.3228,2.3212,2.3259,2.3236,2.3266,2.3265,2.3276,2.3274,2.3272,2.3322,2.3243,2.3121,2.3109,2.3274,2.3275,2.3276,0,2.3053,2.3057,2.3036,2.3043,2.3081,2.3069,2.3084,2.3106,2.3107,2.3115,2.3116,2.3121,2.3123,2.3125,2.3161,2.3192,2.3133,2.3183,2.3146,2.3144,2.3128,2.3128,2.3002,2.3131,2.3131,2.3131,2.3132,0,2.2955,2.293,2.2991,2.2978,2.2952,2.3,2.2972,2.2993,2.3012,2.3002,2.3051,2.3041,2.309,2.3085,2.3112,2.3089,2.309,2.3102,2.3109,2.3096,2.3094,2.3094,2.3099,2.3128,2.3129,2.313,2.313,0,2.2835,2.2875,2.2856,2.2895,2.2905,2.2883,2.2916,2.2905,2.2932,2.2919,2.2919,2.296,2.2957,2.2994,2.2997,2.3016,2.2978,2.2996,2.2972,2.2977,2.2937,2.294,2.2804,2.2788,2.2929,2.2927,2.2926,0,2.2768,2.2751,2.2789,2.2788,2.2801,2.2798,2.2801,2.2848,2.2849,2.287,2.2856,2.2858,2.2861,2.2853,2.2881,2.2884,2.2901,2.2853,2.2901,2.2889,2.2898,2.2898,2.2896,2.2842,2.284,2.2839,2.2838,0,2.2645,2.2666,2.267,2.268,2.2683,2.2693,2.2706,2.2701,2.2753,2.2751,2.275,2.2753,2.2758,2.2758,2.2767,2.2781,2.2816,2.2823,2.2814,2.2799,2.2786,2.2791,2.2943,2.2825,2.2826,2.2827,2.2828,2.2828,2.2548,2.2536,2.2562,2.2564,2.258,2.2591,2.2583,2.2611,2.2611,2.262,2.2649,2.2642,2.2663,2.2679,2.269,2.2685,2.2708,2.2695,2.2691,2.2687,2.2679,2.2789,2.2687,2.2687,2.2687,2.2688,2.2688,0,2.2426,2.2447,2.2449,2.2467,2.2468,2.2507,2.2524,2.2522,2.2517,2.2534,2.2538,2.2536,2.2538,2.2568,2.2573,2.2563,2.258,2.2562,2.2562,2.2564,2.2659,2.2665,2.2549,2.2549,2.2549,2.2549,2.2549,2.2549,2.2362,2.2344,2.2369,2.2358,2.2379,2.2375,2.2381,2.2392,2.2406,2.2404,2.2406,2.2428,2.245,2.2457,2.246,2.2469,2.2467,2.2443,2.2457,2.2544,2.2558,2.257,2.2577,2.2443,2.2443,2.2364,2.2363,2.2362]}]]